| time (UTC) | temp C | wind direction | speed KPH | gust KPH | rain 1hr cm | rain 24hr cm | rain mn cm | humidity % | barometer mb |
| 20260504184337 | 24 | 244 | 3.2 | 11.3 | 0.00 | 0.00 | 0.00 | 34 | 1016.7 |
| 20260504183833 | 25 | 269 | 4.8 | 9.7 | 0.00 | 0.00 | 0.00 | 33 | 1016.7 |
| 20260504183330 | 25 | 238 | 1.6 | 4.8 | 0.00 | 0.00 | 0.00 | 34 | 1016.7 |
| 20260504182828 | 24 | 326 | 3.2 | 6.4 | 0.00 | 0.00 | 0.00 | 35 | 1016.7 |
| 20260504182325 | 24 | 250 | 6.4 | 6.4 | 0.00 | 0.00 | 0.00 | 35 | 1016.7 |
| 20260504181822 | 24 | 32 | 4.8 | 4.8 | 0.00 | 0.00 | 0.00 | 34 | 1016.8 |
| 20260504181320 | 24 | 273 | 3.2 | 3.2 | 0.00 | 0.00 | 0.00 | 33 | 1016.9 |
| 20260504180819 | 23 | 139 | 6.4 | 6.4 | 0.00 | 0.00 | 0.00 | 34 | 1016.9 |
| 20260504180316 | 23 | 137 | 1.6 | 8.0 | 0.00 | 0.00 | 0.00 | 34 | 1016.9 |
| 20260504175814 | 23 | 154 | 4.8 | 4.8 | 0.00 | 0.00 | 0.00 | 35 | 1017.1 |
| 20260504175311 | 22 | 190 | 1.6 | 6.4 | 0.00 | 0.00 | 0.00 | 35 | 1016.9 |
| 20260504174809 | 23 | 143 | 3.2 | 14.5 | 0.00 | 0.00 | 0.00 | 34 | 1017.3 |
| 20260504174306 | 23 | 258 | 3.2 | 6.4 | 0.00 | 0.00 | 0.00 | 35 | 1017.2 |
| 20260504173803 | 23 | 279 | 3.2 | 4.8 | 0.00 | 0.00 | 0.00 | 35 | 1017.1 |
| 20260504173259 | 22 | 265 | 3.2 | 9.7 | 0.00 | 0.00 | 0.00 | 35 | 1017.2 |
| 20260504172756 | 22 | 332 | 3.2 | 4.8 | 0.00 | 0.00 | 0.00 | 35 | 1017.4 |
| 20260504172253 | 22 | 295 | 3.2 | 9.7 | 0.00 | 0.00 | 0.00 | 35 | 1017.3 |
| 20260504171749 | 22 | 277 | 8.0 | 11.3 | 0.00 | 0.00 | 0.00 | 35 | 1017.3 |
| 20260504171246 | 22 | 279 | 9.7 | 9.7 | 0.00 | 0.00 | 0.00 | 35 | 1017.2 |
| 20260504170743 | 22 | 190 | 4.8 | 6.4 | 0.00 | 0.00 | 0.00 | 34 | 1017.6 |
| 20260504170241 | 22 | 322 | 1.6 | 6.4 | 0.00 | 0.00 | 0.00 | 34 | 1018.0 |
| 20260504160159 | 21 | 281 | 4.8 | 9.7 | 0.00 | 0.00 | 0.00 | 34 | 1018.8 |
| 20260504151127 | 20 | 188 | 1.6 | 6.4 | 0.00 | 0.00 | 0.00 | 39 | 1019.1 |
| 20260504150624 | 19 | 164 | 3.2 | 6.4 | 0.00 | 0.00 | 0.00 | 40 | 1019.1 |
| 20260504150121 | 19 | 278 | 4.8 | 6.4 | 0.00 | 0.00 | 0.00 | 38 | 1019.0 |
| 20260504141049 | 17 | 313 | 0.0 | 3.2 | 0.00 | 0.00 | 0.00 | 51 | 1018.9 |
| 20260504140546 | 16 | 180 | 0.0 | 3.2 | 0.00 | 0.00 | 0.00 | 53 | 1018.9 |
| 20260504130510 | 13 | 162 | 1.6 | 3.2 | 0.00 | 0.00 | 0.00 | 61 | 1018.8 |
| 20260504110358 | 5 | 98 | 3.2 | 3.2 | 0.00 | 0.00 | 0.00 | 91 | 1019.0 |
| 20260504100315 | 6 | 119 | 0.0 | 3.2 | 0.00 | 0.00 | 0.00 | 88 | 1019.0 |
| 20260504081708 | 5 | 110 | 3.2 | 3.2 | 0.00 | 0.00 | 0.00 | 82 | 1018.7 |
| 20260504081205 | 6 | 106 | 1.6 | 3.2 | 0.00 | 0.00 | 0.00 | 81 | 1018.6 |
| 20260504080701 | 6 | 96 | 1.6 | 3.2 | 0.00 | 0.00 | 0.00 | 81 | 1018.7 |
| 20260504080157 | 6 | 94 | 3.2 | 3.2 | 0.00 | 0.00 | 0.00 | 81 | 1018.5 |
| 20260504070125 | 7 | 73 | 0.0 | 1.6 | 0.00 | 0.00 | 0.00 | 75 | 1018.4 |
| 20260504050514 | 9 | 117 | 3.2 | 3.2 | 0.00 | 0.00 | 0.00 | 62 | 1019.0 |
| 20260504050011 | 9 | 127 | 3.2 | 3.2 | 0.00 | 0.00 | 0.00 | 60 | 1019.1 |
| 20260504045508 | 10 | 119 | 3.2 | 4.8 | 0.00 | 0.00 | 0.00 | 58 | 1019.0 |
| 20260504045003 | 10 | 121 | 3.2 | 4.8 | 0.00 | 0.00 | 0.00 | 57 | 1019.1 |
| 20260504044501 | 10 | 121 | 3.2 | 4.8 | 0.00 | 0.00 | 0.00 | 56 | 1018.8 |
| 20260504043958 | 10 | 120 | 3.2 | 4.8 | 0.00 | 0.00 | 0.00 | 56 | 1018.8 |
| 20260504043455 | 9 | 110 | 3.2 | 4.8 | 0.00 | 0.00 | 0.00 | 57 | 1018.7 |
| 20260504042952 | 9 | 107 | 1.6 | 3.2 | 0.00 | 0.00 | 0.00 | 59 | 1018.7 |
| 20260504042449 | 9 | 114 | 3.2 | 3.2 | 0.00 | 0.00 | 0.00 | 57 | 1018.8 |
| 20260504041945 | 8 | 108 | 1.6 | 3.2 | 0.00 | 0.00 | 0.00 | 58 | 1018.8 |
| 20260504041441 | 9 | 114 | 1.6 | 3.2 | 0.00 | 0.00 | 0.00 | 58 | 1018.9 |
| 20260504040937 | 9 | 117 | 3.2 | 3.2 | 0.00 | 0.00 | 0.00 | 60 | 1019.0 |
| 20260504040436 | 9 | 123 | 1.6 | 3.2 | 0.00 | 0.00 | 0.00 | 59 | 1018.9 |
| 20260504035931 | 9 | 105 | 3.2 | 3.2 | 0.00 | 0.00 | 0.00 | 58 | 1018.9 |
| 20260504035429 | 10 | 123 | 3.2 | 4.8 | 0.00 | 0.00 | 0.00 | 58 | 1018.7 |
| 20260504034925 | 9 | 121 | 3.2 | 4.8 | 0.00 | 0.00 | 0.00 | 58 | 1018.8 |
| 20260504034423 | 9 | 109 | 3.2 | 3.2 | 0.00 | 0.00 | 0.00 | 58 | 1018.8 |
| 20260504033920 | 9 | 113 | 3.2 | 3.2 | 0.00 | 0.00 | 0.00 | 59 | 1018.9 |
| 20260504033418 | 9 | 110 | 3.2 | 3.2 | 0.00 | 0.00 | 0.00 | 59 | 1018.9 |
| 20260504032914 | 9 | 115 | 3.2 | 3.2 | 0.00 | 0.00 | 0.00 | 58 | 1018.9 |
| 20260504032411 | 9 | 124 | 3.2 | 3.2 | 0.00 | 0.00 | 0.00 | 58 | 1018.9 |
| 20260504031908 | 9 | 116 | 3.2 | 3.2 | 0.00 | 0.00 | 0.00 | 57 | 1018.8 |
| 20260504031405 | 9 | 121 | 3.2 | 3.2 | 0.00 | 0.00 | 0.00 | 59 | 1018.9 |
| 20260504030901 | 9 | 115 | 3.2 | 3.2 | 0.00 | 0.00 | 0.00 | 59 | 1019.1 |
| 20260504030359 | 9 | 130 | 3.2 | 3.2 | 0.00 | 0.00 | 0.00 | 59 | 1018.9 |
| 20260504025854 | 9 | 113 | 1.6 | 3.2 | 0.00 | 0.00 | 0.00 | 58 | 1018.9 |
| 20260504025352 | 9 | 104 | 1.6 | 3.2 | 0.00 | 0.00 | 0.00 | 58 | 1019.0 |
| 20260504024849 | 9 | 112 | 1.6 | 3.2 | 0.00 | 0.00 | 0.00 | 57 | 1018.9 |
| 20260504024345 | 9 | 113 | 1.6 | 3.2 | 0.00 | 0.00 | 0.00 | 57 | 1018.8 |
| 20260504023842 | 10 | 109 | 1.6 | 3.2 | 0.00 | 0.00 | 0.00 | 57 | 1018.8 |
| 20260504023339 | 10 | 105 | 1.6 | 3.2 | 0.00 | 0.00 | 0.00 | 57 | 1018.8 |
| 20260504022834 | 10 | 102 | 1.6 | 3.2 | 0.00 | 0.00 | 0.00 | 56 | 1018.6 |
| 20260504022331 | 10 | 111 | 3.2 | 3.2 | 0.00 | 0.00 | 0.00 | 56 | 1018.7 |
| 20260504021828 | 10 | 114 | 1.6 | 3.2 | 0.00 | 0.00 | 0.00 | 54 | 1018.8 |
| 20260504021325 | 10 | 97 | 1.6 | 3.2 | 0.00 | 0.00 | 0.00 | 53 | 1018.4 |
| 20260504020822 | 10 | 102 | 3.2 | 3.2 | 0.00 | 0.00 | 0.00 | 54 | 1018.5 |
| 20260504020319 | 10 | 113 | 3.2 | 4.8 | 0.00 | 0.00 | 0.00 | 54 | 1018.4 |
| 20260504015815 | 10 | 115 | 3.2 | 3.2 | 0.00 | 0.00 | 0.00 | 54 | 1018.4 |
| 20260504015311 | 10 | 103 | 1.6 | 3.2 | 0.00 | 0.00 | 0.00 | 53 | 1018.1 |
| 20260504014808 | 10 | 107 | 1.6 | 3.2 | 0.00 | 0.00 | 0.00 | 52 | 1018.1 |
| 20260504014303 | 11 | 102 | 3.2 | 3.2 | 0.00 | 0.00 | 0.00 | 53 | 1017.9 |
| 20260504013801 | 11 | 115 | 3.2 | 3.2 | 0.00 | 0.00 | 0.00 | 53 | 1018.2 |
| 20260504013259 | 11 | 119 | 3.2 | 3.2 | 0.00 | 0.00 | 0.00 | 53 | 1018.1 |
| 20260504012755 | 11 | 113 | 1.6 | 3.2 | 0.00 | 0.00 | 0.00 | 52 | 1018.2 |
| 20260504012253 | 11 | 94 | 1.6 | 3.2 | 0.00 | 0.00 | 0.00 | 51 | 1018.1 |
| 20260504011750 | 11 | 103 | 3.2 | 3.2 | 0.00 | 0.00 | 0.00 | 51 | 1018.1 |
| 20260504011247 | 11 | 106 | 1.6 | 3.2 | 0.00 | 0.00 | 0.00 | 49 | 1018.2 |
| 20260504010743 | 12 | 121 | 3.2 | 3.2 | 0.00 | 0.00 | 0.00 | 49 | 1018.0 |
| 20260504010238 | 12 | 105 | 1.6 | 3.2 | 0.00 | 0.00 | 0.00 | 48 | 1018.0 |
| 20260504005735 | 12 | 118 | 3.2 | 3.2 | 0.00 | 0.00 | 0.00 | 48 | 1018.0 |
| 20260504005233 | 12 | 107 | 1.6 | 3.2 | 0.00 | 0.00 | 0.00 | 47 | 1017.9 |
| 20260504004730 | 12 | 98 | 1.6 | 3.2 | 0.00 | 0.00 | 0.00 | 46 | 1018.0 |
| 20260504004227 | 13 | 123 | 1.6 | 3.2 | 0.00 | 0.00 | 0.00 | 46 | 1018.0 |
| 20260504003723 | 13 | 118 | 1.6 | 1.6 | 0.00 | 0.00 | 0.00 | 45 | 1017.8 |
| 20260504003221 | 13 | 120 | 0.0 | 3.2 | 0.00 | 0.00 | 0.00 | 43 | 1017.6 |
| 20260504002717 | 14 | 125 | 3.2 | 3.2 | 0.00 | 0.00 | 0.00 | 43 | 1017.7 |
| 20260504002214 | 15 | 121 | 3.2 | 3.2 | 0.00 | 0.00 | 0.00 | 41 | 1017.7 |
| 20260504001712 | 15 | 127 | 3.2 | 3.2 | 0.00 | 0.00 | 0.00 | 40 | 1017.6 |
| 20260504001209 | 15 | 123 | 3.2 | 3.2 | 0.00 | 0.00 | 0.00 | 39 | 1017.6 |
| 20260504000705 | 15 | 121 | 3.2 | 4.8 | 0.00 | 0.00 | 0.00 | 37 | 1017.6 |
| 20260504000204 | 16 | 122 | 3.2 | 3.2 | 0.00 | 0.00 | 0.00 | 36 | 1017.6 |
| 20260503235701 | 16 | 113 | 3.2 | 4.8 | 0.00 | 0.00 | 0.00 | 34 | 1017.4 |
| 20260503235157 | 17 | 140 | 1.6 | 3.2 | 0.00 | 0.00 | 0.00 | 33 | 1017.4 |
| 20260503234655 | 17 | 134 | 3.2 | 3.2 | 0.00 | 0.00 | 0.00 | 31 | 1017.5 |
| 20260503234153 | 17 | 139 | 1.6 | 3.2 | 0.00 | 0.00 | 0.00 | 30 | 1017.6 |
| 20260503233649 | 18 | 150 | 1.6 | 3.2 | 0.00 | 0.00 | 0.00 | 29 | 1017.5 |
| 20260503233145 | 19 | 150 | 1.6 | 3.2 | 0.00 | 0.00 | 0.00 | 28 | 1017.5 |
| 20260503232642 | 19 | 146 | 0.0 | 3.2 | 0.00 | 0.00 | 0.00 | 27 | 1017.4 |
| 20260503232140 | 19 | 154 | 3.2 | 3.2 | 0.00 | 0.00 | 0.00 | 27 | 1017.6 |
| 20260503231638 | 19 | 152 | 1.6 | 3.2 | 0.00 | 0.00 | 0.00 | 27 | 1017.4 |
| 20260503231134 | 20 | 167 | 3.2 | 4.8 | 0.00 | 0.00 | 0.00 | 26 | 1017.5 |
| 20260503230631 | 20 | 177 | 0.0 | 3.2 | 0.00 | 0.00 | 0.00 | 25 | 1017.6 |
| 20260503230128 | 20 | 142 | 3.2 | 3.2 | 0.00 | 0.00 | 0.00 | 26 | 1017.4 |
| 20260503225626 | 20 | 172 | 1.6 | 3.2 | 0.00 | 0.00 | 0.00 | 26 | 1017.5 |
| 20260503225125 | 20 | 159 | 1.6 | 3.2 | 0.00 | 0.00 | 0.00 | 25 | 1017.6 |
| 20260503224623 | 20 | 188 | 0.0 | 3.2 | 0.00 | 0.00 | 0.00 | 25 | 1017.5 |
| 20260503224121 | 20 | 159 | 6.4 | 6.4 | 0.00 | 0.00 | 0.00 | 24 | 1017.5 |
| 20260503223618 | 20 | 159 | 3.2 | 4.8 | 0.00 | 0.00 | 0.00 | 25 | 1017.7 |
| 20260503223114 | 20 | 316 | 1.6 | 3.2 | 0.00 | 0.00 | 0.00 | 24 | 1017.7 |
| 20260503222612 | 20 | 166 | 3.2 | 4.8 | 0.00 | 0.00 | 0.00 | 24 | 1017.7 |
| 20260503222110 | 20 | 308 | 4.8 | 6.4 | 0.00 | 0.00 | 0.00 | 23 | 1017.7 |
| 20260503221608 | 20 | 159 | 0.0 | 4.8 | 0.00 | 0.00 | 0.00 | 24 | 1017.8 |
| 20260503221105 | 20 | 180 | 3.2 | 4.8 | 0.00 | 0.00 | 0.00 | 24 | 1018.0 |
| 20260503220601 | 20 | 179 | 3.2 | 3.2 | 0.00 | 0.00 | 0.00 | 25 | 1018.0 |
| 20260503220058 | 19 | 161 | 1.6 | 8.0 | 0.00 | 0.00 | 0.00 | 25 | 1018.1 |
| 20260503215555 | 20 | 137 | 3.2 | 6.4 | 0.00 | 0.00 | 0.00 | 24 | 1018.0 |
| 20260503215052 | 19 | 156 | 3.2 | 8.0 | 0.00 | 0.00 | 0.00 | 24 | 1018.1 |
| 20260503214550 | 20 | 163 | 3.2 | 14.5 | 0.00 | 0.00 | 0.00 | 23 | 1018.4 |
| 20260503214046 | 19 | 278 | 9.7 | 9.7 | 0.00 | 0.00 | 0.00 | 23 | 1018.2 |
| 20260503213545 | 20 | 173 | 4.8 | 4.8 | 0.00 | 0.00 | 0.00 | 23 | 1018.2 |
| 20260503213041 | 20 | 17 | 1.6 | 4.8 | 0.00 | 0.00 | 0.00 | 22 | 1018.4 |
| 20260503212539 | 20 | 253 | 3.2 | 6.4 | 0.00 | 0.00 | 0.00 | 23 | 1018.4 |
| 20260503212036 | 19 | 349 | 3.2 | 8.0 | 0.00 | 0.00 | 0.00 | 24 | 1018.5 |
| 20260503211533 | 19 | 1 | 4.8 | 11.3 | 0.00 | 0.00 | 0.00 | 24 | 1018.5 |
| 20260503211028 | 19 | 307 | 3.2 | 8.0 | 0.00 | 0.00 | 0.00 | 24 | 1018.5 |
| 20260503210525 | 19 | 214 | 3.2 | 4.8 | 0.00 | 0.00 | 0.00 | 24 | 1018.4 |
| 20260503210021 | 18 | 252 | 4.8 | 6.4 | 0.00 | 0.00 | 0.00 | 24 | 1018.4 |
| 20260503205518 | 18 | 107 | 3.2 | 16.1 | 0.00 | 0.00 | 0.00 | 24 | 1018.6 |
| 20260503205014 | 18 | 278 | 3.2 | 17.7 | 0.00 | 0.00 | 0.00 | 24 | 1018.5 |
| 20260503204512 | 18 | 12 | 1.6 | 16.1 | 0.00 | 0.00 | 0.00 | 24 | 1018.5 |
| 20260503204008 | 18 | 272 | 6.4 | 11.3 | 0.00 | 0.00 | 0.00 | 24 | 1018.5 |
| 20260503203506 | 18 | 193 | 3.2 | 8.0 | 0.00 | 0.00 | 0.00 | 23 | 1018.6 |
| 20260503203002 | 18 | 332 | 3.2 | 12.9 | 0.00 | 0.00 | 0.00 | 23 | 1018.6 |
| 20260503202500 | 18 | 180 | 0.0 | 4.8 | 0.00 | 0.00 | 0.00 | 25 | 1018.7 |
| 20260503201958 | 18 | 188 | 1.6 | 6.4 | 0.00 | 0.00 | 0.00 | 24 | 1018.9 |
| 20260503201456 | 18 | 347 | 3.2 | 8.0 | 0.00 | 0.00 | 0.00 | 23 | 1019.0 |
| 20260503200953 | 18 | 252 | 6.4 | 12.9 | 0.00 | 0.00 | 0.00 | 22 | 1019.2 |
| 20260503200449 | 18 | 163 | 1.6 | 4.8 | 0.00 | 0.00 | 0.00 | 24 | 1019.1 |
| 20260503195946 | 18 | 165 | 6.4 | 6.4 | 0.00 | 0.00 | 0.00 | 23 | 1019.1 |
| 20260503195443 | 18 | 178 | 3.2 | 6.4 | 0.00 | 0.00 | 0.00 | 24 | 1019.2 |
| 20260503194939 | 17 | 250 | 6.4 | 11.3 | 0.00 | 0.00 | 0.00 | 25 | 1019.4 |
| 20260503194437 | 18 | 313 | 1.6 | 6.4 | 0.00 | 0.00 | 0.00 | 24 | 1019.4 |
| 20260503193932 | 18 | 220 | 3.2 | 4.8 | 0.00 | 0.00 | 0.00 | 25 | 1019.2 |
| 20260503193428 | 17 | 305 | 4.8 | 11.3 | 0.00 | 0.00 | 0.00 | 25 | 1019.4 |
| 20260503192923 | 17 | 258 | 6.4 | 6.4 | 0.00 | 0.00 | 0.00 | 25 | 1019.5 |
| 20260503192420 | 17 | 143 | 3.2 | 8.0 | 0.00 | 0.00 | 0.00 | 24 | 1019.5 |
| 20260503191916 | 17 | 27 | 4.8 | 6.4 | 0.00 | 0.00 | 0.00 | 24 | 1019.5 |
| 20260503191414 | 17 | 343 | 8.0 | 8.0 | 0.00 | 0.00 | 0.00 | 25 | 1019.7 |
| 20260503190910 | 17 | 251 | 6.4 | 8.0 | 0.00 | 0.00 | 0.00 | 25 | 1019.8 |
| 20260503190407 | 16 | 53 | 8.0 | 9.7 | 0.00 | 0.00 | 0.00 | 26 | 1019.7 |
| 20260503185903 | 16 | 153 | 3.2 | 14.5 | 0.00 | 0.00 | 0.00 | 26 | 1020.0 |
| 20260503185400 | 16 | 16 | 3.2 | 9.7 | 0.00 | 0.00 | 0.00 | 27 | 1020.0 |
| 20260503184859 | 16 | 298 | 6.4 | 9.7 | 0.00 | 0.00 | 0.00 | 26 | 1020.1 |